This is the latest recevied weather packets stored in our database for station/object KI5GCD-13. If no packets are shown the sender has not sent any weather packets the latest 10 day(s).
| Time | Temp. | Humidity | Pressure | Rain* | Wind** | Luminosity | Snow |
|---|---|---|---|---|---|---|---|
| 1777599287 | 12.22° C | 87% | 1012.8 hPa | 0 mm | 0 m/s | - | - |
| 1777598987 | 12.22° C | 86% | 1012.6 hPa | 0 mm | 0 m/s | - | - |
| 1777598687 | 12.78° C | 85% | 1012.7 hPa | 0 mm | 0 m/s | - | - |
| 1777598387 | 12.78° C | 84% | 1012.6 hPa | 0 mm | 0 m/s | - | - |
| 1777598087 | 13.33° C | 84% | 1012.6 hPa | 0 mm | 0 m/s | - | - |
| 1777597788 | 13.33° C | 81% | 1012.7 hPa | 0 mm | 0 m/s | - | - |
| 1777597487 | 13.89° C | 80% | 1012.4 hPa | 0 mm | 0 m/s | - | - |
| 1777597187 | 13.89° C | 79% | 1012.6 hPa | 0 mm | 0 m/s | - | - |
| 1777596887 | 14.44° C | 77% | 1012.6 hPa | 0 mm | 0 m/s | - | - |
| 1777596587 | 15° C | 76% | 1012.3 hPa | 0 mm | 0 m/s | - | - |
| 1777596287 | 15° C | 70% | 1012.3 hPa | 0 mm | 0 m/s | - | - |
| 1777595988 | 15° C | 68% | 1012.1 hPa | 0 mm | 0 m/s | - | - |
| 1777595687 | 15.56° C | 68% | 1012.4 hPa | 0 mm | 0 m/s | - | - |
| 1777595387 | 15.56° C | 67% | 1012.4 hPa | 0 mm | 0 m/s | - | - |
| 1777595087 | 16.11° C | 65% | 1012.2 hPa | 0 mm | 0 m/s | - | - |
| 1777594787 | 16.11° C | 61% | 1012.2 hPa | 0 mm | 0 m/s | - | - |
| 1777594487 | 16.67° C | 57% | 1012.3 hPa | 0 mm | 0.45 m/s, 263° | - | - |
| 1777594187 | 16.67° C | 54% | 1012.4 hPa | 0 mm | 0.45 m/s, 247° | - | - |
| 1777593887 | 16.67° C | 54% | 1012.4 hPa | 0 mm | 0 m/s | - | - |
| 1777593587 | 16.67° C | 54% | 1012.4 hPa | 0 mm | 0 m/s | - | - |
| 1777593287 | 16.67° C | 52% | 1012.3 hPa | 0 mm | 0.89 m/s, 309° | - | - |
| 1777592987 | 17.22° C | 55% | 1012.6 hPa | 0 mm | 0.89 m/s, 282° | - | - |
| 1777592687 | 17.22° C | 53% | 1012.3 hPa | 0 mm | 0.45 m/s, 239° | - | - |
| 1777592387 | 17.22° C | 55% | 1012.7 hPa | 0 mm | 0.89 m/s, 17° | - | - |
| 1777592087 | 17.22° C | 52% | 1012.4 hPa | 0 mm | 0.89 m/s, 178° | - | - |
* Rain latest hour (hover to see other rain measurements)
** Current wind speed in m/s (hover to see current wind gust speed)